Starlink 36273

operational
NORAD ID: 68166 Int'l Des: 2026-049 Owner: SPXS Country: US Constellation: starlink
LEOCIRCULARRETROGRADE

About Starlink 36273

Description loading...

Live Position

Loading 3D Globe...

Upcoming Passes

Altitude History

Altitude vs Time

uPlot chart will show altitude changes over time

Two-Line Element Set

1 68166C 26049AA 26072.91229167 .00491740 00000+0 56961-3 0 728
2 68166 97.2818 91.9117 0010196 250.7538 106.2065 16.08269178 18
Epoch: Mar 13, 2026 • Age: 70 hours

Current Status

Altitude 264.0 km
Velocity 7.75 km/s
Sub-Earth Point 63.62°N, 63.21°W
Launch Date Mar 13, 2026
Age 2 days
Type internet

Technical Details

Classification Payload
Mass 575.00 kg
Dry Mass 530.00 kg
Total Mass 575.00 kg
Length 0.30 m
Diameter 4.10 m
Span 29.00 m
Shape Box + pan
Manufacturer SPXS
Bus Type Starlink V2MO
Phase Status In Orbit
Owner/State SPXS/US

Large Constellations

Loading constellations...